NEWSAT-1 (PALAPA B2R)

导读 | 星芒AI

NEWSAT-1,又称PALAPA B2R,是由美国制造并于1991年发射的通信卫星,原属印度尼西亚PALAPA卫星系列。该卫星由Hughes Space and Communications公司建造,搭载24个C波段转发器,用于电视广播和电信服务。由于发射失败,卫星未能进入预定轨道,最终被Spaceway公司购得,并于1994年作为Spaceway 1投入使用,为北美地区提供直接到户(DTH)电视服务。其经历体现了卫星发射失败后的再利用价值。

基本信息
目录编号:
20570
目录名称:
NEWSAT-1 (PALAPA B2R)
国际标识:
1990-034A
轨道中心:
EARTH
卫星名称:
NEWSAT-1 (PALAPA B2R)
卫星全名:
--
卫星状态:
在轨 (已飞行12985 天)
发射日期:
1990-04-13 UTC
国别 :
美国 (US)
星等 :
--
轨道信息
数据来源 国际轨道数据 AOE轨道数据
星历时间 2025-10-30T10:22:40+0800
1天前
查看轨道信息
2025-10-31T12:00:00+0800
3小时前
查看轨道信息
半长轴 42374.937km 42374.937km
偏心率 0.0010904 0.0010926
轨道倾角 14.674° 14.674°
近地点辐角 158.267° 159.152°
升交点赤经 4.642° 4.635°
平近点角 199.801° 221.443°
近地点 35950.596km 35950.503km
远地点 36043.008km 36043.101km
周期 1446.849分钟 1446.849分钟
每日圈数 0.995266 0.995266
详细信息
使用方式:
暂无
2D轨道图
3D轨道图
轨道高度分析图
轨道倾角分析图
轨道综合分析图
查看轨道综合分析图